Location: Ernsee
(50.8780°N, 12.0389°E)
Time: 18:45:10
(UTC+00:00)

COSMOS 2455 - Pass Details

Date: 20 January 2020
Orbit: 902 x 907 km, 67.1° (Epoch: 16 February)

Event Time Altitude Azimuth Distance (km) Brightness Sun altitude
Rises 06:22:15 0° 241° (WSW) 3,524 5.6 -6.7°
Reaches altitude 10° 06:24:53 10° 248° (WSW) 2,586 4.8 -6.3°
Maximum altitude 06:30:34 43° 319° (NW) 1,257 3.2 -5.5°
Drops below altitude 10° 06:36:18 10° 30° (NNE) 2,600 5.3 -4.7°
Sets 06:38:58 0° 38° (NE) 3,545 6.1 -4.3°
